Find Starlink 38252

NORAD ID: 100254 Int'l Des: 2026-181 Owner: SPXS Country: US Constellation: starlink operational

現在のビュー

3D地球を読み込み中...

About Starlink 38252

Starlink 38252 (NORAD 100254) is a starlink constellation satellite launched Aug 8, 2026 by SPXS of US. with a mass of 575.00 kg.

次回通過

Passes for default location (London). Set your location on the main map for personalized predictions.

高度履歴

Loading altitude history...

軌道要素

1 A0254U 26181J 26247.58043567 .00182361 00000-0 11936-2 0 9991
2 A0254 97.2842 290.3806 0001071 66.0013 294.1364 15.75267682 5450
Epoch: Sep 4, 2026 • Age: 25 hours

現在のステータス

高度 366.8 km
遠地点 / 近地点 N/A
速度 7.69 km/s
衛星直下点 -59.94°S, 116.02°W
打ち上げ日 Aug 8, 2026
運用期間 27 days
タイプ internet

技術仕様

分類 Payload
質量 575.00 kg
乾燥質量 530.00 kg
総質量 575.00 kg
長さ 0.30 m
直径 4.10 m
スパン 29.00 m
形状 Box + pan
製造者 SPXS
バスタイプ Starlink V2MO
フェーズステータス In Orbit
所有者/国 SPXS/US

Most Searched